Home   Weather   Hadera   Past weeks

Flag for Israel Past Weather in Hadera, Israel — Yesterday and Last 2 Weeks

Now
70 °F

Sunny.


Feels Like: 70 °F
Forecast: 61 / 68 °F
Wind: 10 mph from North

Location: Dov Airport

Current Time: Dec 6, 2016 at 4:19:25 pm

Latest Report: Dec 6, 2016 at 3:50 pm


Visibility: 10 mi

Pressure: 30.15 "Hg

Humidity: 53%

Dew Point: 52 °F

Location of HaderaLocation

Past Weather in Hadera — Graph

°F

Hadera Temperature Yesterday

Maximum temperature yesterday: 68 °F (at 2:50 pm)
Minimum temperature yesterday: 54 °F (at 5:50 am)
Average temperature yesterday: 63 °F

High & Low Weather Summary for the Past Weeks

 TemperatureHumidityPressure
High84 °F (Nov 21, 2:50 pm)94% (Dec 1, 3:02 pm)30.30 "Hg (Dec 1, 3:02 pm)
Low52 °F (Nov 26, 6:50 am)5% (Nov 24, 1:50 pm)29.74 "Hg (Dec 1, 1:50 pm)
Average66 °F39%30.04 "Hg
* Reported Nov 21 2:50 pm — Dec 6 2:50 pm, Hadera, Weather by CustomWeather, © 2016

Note: Actual official high and low records may vary slightly from our data, if they occured in-between our weather recording intervals... More about our weather records

Advertising

Hadera Weather History for the Previous 24 Hours

Scroll right to see more
 ConditionsComfort  
Time TempWeatherWind HumidityBarometerVisibility
2:50 pm
Tue, Dec 6
70 °FPassing clouds.9 mph50%30.15 "HgN/A
1:50 pm70 °FSunny.9 mph50%30.15 "Hg10 mi
12:50 pm68 °FSunny.8 mph53%30.15 "Hg10 mi
11:50 am68 °FPassing clouds.6 mph53%30.18 "HgN/A
10:50 am66 °FPassing clouds.6 mph56%30.21 "HgN/A
8:50 am63 °FPassing clouds.3 mph68%30.21 "HgN/A
7:50 am57 °FPassing clouds.2 mph82%30.21 "HgN/A
6:50 am54 °FPassing clouds.6 mph88%30.21 "HgN/A
5:50 am55 °FClear.5 mph88%30.18 "Hg10 mi
10:50 pm
Mon, Dec 5
61 °FPassing clouds.6 mph77%30.18 "HgN/A
9:50 pm61 °FPassing clouds.5 mph77%30.18 "HgN/A
8:50 pm63 °FPassing clouds.5 mph73%30.18 "HgN/A
7:50 pm63 °FPassing clouds.5 mph73%30.18 "HgN/A
6:50 pm64 °FPassing clouds.5 mph68%30.18 "HgN/A
5:50 pm66 °FPassing clouds.6 mph64%30.15 "HgN/A
4:50 pm66 °FClear.5 mph60%30.15 "Hg10 mi
Weather by CustomWeather, © 2016

See weather overviewHow to use our weather pages